Regional Weather Roundup
Issued by NWS

Home | Current Version | Previous Version | Graphics & Text | Print | Product List | Glossary On
Versions: 1 2 3 4 5 6 7 8 9 10 11 12 13 14 15 16 17 18 19 20 21 22 23 24 25 26 27 28 29 30 31 32 33 34 35 36 37 38 39 40 41 42 43 44 45 46 47 48 49 50
000
ASUS45 KTFX 081210
RWRMT
MONTANA REGIONAL WEATHER ROUNDUP
NATIONAL WEATHER SERVICE GREAT FALLS MT
500 AM MST THU DEC 08 2016

NOTE: "FAIR" INDICATES FEW OR NO CLOUDS BELOW 12000 FEET WITH NO
SIGNIFICANT WEATHER AND/OR OBSTRUCTIONS TO VISIBILITY.

MTZ001>007-043-081300-
WEST OF THE DIVIDE

CITY           SKY/WX    TMP DP  RH WIND       PRES   REMARKS
KALISPELL      MOCLDY     2  -6  69 N12       30.44F WCI -15
MISSOULA       PTCLDY     8   0  69 E9        30.41F WCI  -5
BUTTE          CLOUDY    -5 -10  79 S3        30.24F
MULLAN PASS    CLOUDY    -1  -4  87 SE12G23   30.09F FOG     WCI -18
ANACONDA         N/A     -6 -13  71 S7        30.27F WCI -20
DEER LODGE       N/A     -2  -8  78 CALM      30.32S
EUREKA           N/A     -4  -9  77 CALM      30.53S
HAMILTON         N/A     10   3  72 CALM      30.36F
LIBBY            N/A      9   7  92 CALM      30.46F
PLAINS           N/A     14   4  64 CALM      30.41F
RONAN            N/A     13   7  77 CALM      30.38F
$$

MTZ008-052>055-081300-
SOUTHWEST MONTANA

CITY           SKY/WX    TMP DP  RH WIND       PRES   REMARKS
BOZEMAN        CLOUDY    -3  -8  79 S7        30.36F WCI -16
DILLON         CLOUDY    -6 -12  75 S9        30.27F WCI -23
W YELLOWSTONE  CLOUDY   -26 -31  75 CALM      30.23S
ENNIS          CLEAR     -6 -13  71 CALM      30.31F
THREE FORKS      N/A     -5 -59   6 CALM      30.32F
TWIN BRIDGES     N/A     -3 -14  59 CALM      30.25F
$$

MTZ009-010-012-014-046-048-049-054-081300-
EAST SLOPES AND CENTRAL MONTANA

CITY           SKY/WX    TMP DP  RH WIND       PRES   REMARKS
CUT BANK       CLOUDY    -9 -14  78 CALM      30.48F
GREAT FALLS    CLOUDY    -3  -8  79 NE6       30.49S WCI -15
MALMSTROM AFB  CLOUDY    -3  -6  87 NE6       30.52F WCI -16
HELENA         CLOUDY     1  -6  72 W6        30.42F WCI -10
AUGUSTA        FLURRIES  -6 -10  85 E6        30.40F WCI -19
BOWMANS CRNR   FLURRIES  -6  -9  87 NE8       30.38F WCI -21
CHOTEAU          N/A     -6  -9  84 MISG      30.48F
CONRAD           N/A     -6 -11  79 W3        30.46S
FAIRFIELD      CLOUDY    -6 -11  77 NE5       30.46F
POWER          FLURRIES  -6 -10  80 N3        30.47F
RAYNESFORD     CLOUDY    -3  -8  77 SE7       30.44F WCI -16
ULM            FLURRIES  -3  -8  80 N7        30.49F WCI -16
$$

MTZ011-013-016-021-045-047-050-051-081300-
NORTH CENTRAL MONTANA

CITY           SKY/WX    TMP DP  RH WIND       PRES   REMARKS
HAVRE          CLOUDY   -11 -16  78 SW5       30.64S
LEWISTOWN      CLOUDY    -5 -11  75 SE3       30.44S
N BAR RANCH    CLOUDY    -6 -15  65 CALM      30.43S
CHINOOK          N/A    -11 -17  77 CALM      30.67S
DENTON         MOCLDY    -8 -12  84 S6G15     30.48S WCI -22
GEYSER         CLOUDY    -4  -8  81 E3        30.44S
GRASS RANGE    MOCLDY    -8 -12  80 W5        30.45S
JUDITH GAP     FLURRIES  -1  -6  78 MISG      30.37S
ROY              N/A     -5 -11  78 MISG      30.49F
STANFORD       CLOUDY    -6 -10  83 NE1       30.40S
WINIFRED         N/A     -8 -12  81 MISG      30.49S
$$

MTZ017>020-022>027-061-062-081300-
NORTHEAST MONTANA

CITY           SKY/WX    TMP DP  RH WIND       PRES   REMARKS
GLASGOW        CLOUDY    -3  -8  79 W8        30.65R WCI -18
JORDAN           N/A    -10 -16  74 W6        30.62R WCI -23
SIDNEY         FLURRIES   0  -6  76 NW10      30.66R WCI -16
WOLF POINT     CLOUDY     0  -7  72 W7        30.67S WCI -13
PLENTYWOOD       N/A     -6 -11  77 NW13      30.60R WCI -25
POPLAR           N/A     -2  -8  78 W9        30.66F WCI -18
SCOBEY           N/A     -6 -16  62 NW7       30.53S WCI -20
$$

MTZ028>42-056>058-081300-
SOUTHCENTRAL AND SOUTHEAST MONTANA

CITY           SKY/WX    TMP DP  RH WIND       PRES   REMARKS
BAKER          CLOUDY    -8 -12  83 W9        30.56R WCI -25
BILLINGS       PTCLDY    -2  -7  79 NE3       30.50S
LIVINGSTON     CLOUDY    -4  -9  79 SE7       30.35F WCI -18
MILES CITY     CLEAR     -7 -13  75 W7        30.63R WCI -21
BIG TIMBER     PTCLDY     0  -6  78 CALM      30.41F
FORSYTH          N/A     -2  -8  78 CALM      30.62R
HARLOWTON      FLURRIES   0  -5  81 SE5       30.41S
LAUREL           N/A     -1 -11  63 N3        30.42F
$$

REGIONAL REPORTS...DAKOTAS

CITY           SKY/WX    TMP DP  RH WIND       PRES   REMARKS
WILLISTON      CLOUDY     1  -6  72 W7        30.63S WCI -12
MINOT          PTCLDY     2  -4  76 W14       30.56R WCI -16
DICKINSON      CLEAR     -8 -12  83 NW14      30.53R WCI -29
BEACH          CLOUDY    -2  -8  78 W13       30.60R WCI -21
CROSBY           N/A     -2  -8  78 NW15      30.62R WCI -22
TIOGA          CLOUDY     0  -2  92 W15       30.57R WCI -20
WATFORD CITY   FLURRIES   0  -8  71 W12       30.62R WCI -18
BISMARCK       CLOUDY     4  -1  80 NW17G28   30.57R WCI -16
GRAND FORKS    LGT SNOW  16  10  77 NW24      30.41R WCI  -2
FARGO          CLOUDY    17  10  74 NW22      30.40R WCI   0
BUFFALO SD       N/A     -7 -12  79 W15       30.45R WCI -28
RAPID CITY     CLEAR     -3 -10  72 N8        30.53R WCI -18
$$

REGIONAL REPORTS...WYOMING/IDAHO/WASHINGTON

CITY           SKY/WX    TMP DP  RH WIND       PRES   REMARKS
GILLETTE       CLOUDY   -18 -22  82 CALM      30.44S
SHERIDAN       CLOUDY   -10 -16  74 CALM      30.47S
BUFFALO WY     CLOUDY    -3 -15  56 SW5       30.37S
CODY           CLOUDY   -11 -15  82 S5        30.35F
YELLOWSTONE LA   N/A    -13 -17  82 NW3       30.15F
IDAHO FALLS    CLOUDY     3  -2  79 N3        30.31F
SALMON         CLOUDY    -4  -8  84 CALM      30.36F
BOISE          MOCLDY    18  11  74 SE10      30.30F WCI   6
SPOKANE        PTCLDY    14   6  70 NE8       30.33F WCI   3
$$

REGIONAL REPORTS...ALBERTA

CITY           SKY/WX    TMP DP  RH WIND       PRES   REMARKS
EDMONTON       CLOUDY   -15 -22  70 N3        30.70S
CALGARY        MOCLDY   -13 -17  84 CALM      30.51S
LETHBRIDGE     CLEAR    -20 -26  76 SW8       30.59S WCI -39
MEDICINE HAT   CLEAR    -18 -24  76 SW5       30.67S
WATERTON GATE    N/A    -29 -36  68 CALM        N/A
CARDSTON         N/A    -17 -24  70 SW1         N/A
MILK RIVER       N/A    -18 -24  76 NW9         N/A  WCI -38
$$

REGIONAL REPORTS...SASKATCHEWAN

CITY           SKY/WX    TMP DP  RH WIND       PRES   REMARKS
SWIFT CURRENT  PTCLDY    -9 -13  84 W9        30.57S WCI -27
REGINA         PTCLDY    -8 -11  84 W10       30.61S WCI -26
SASKATOON      CRYSTALS  -8 -13  77 NW7       30.68S WCI -22
CYPRESS HILLS    N/A    -13 -18  77 NW2         N/A
VAL MARIE        N/A    -13 -18  77 W3          N/A
ROCKGLEN         N/A     -9 -15  77 NW9         N/A  WCI -27
ASSINIBOIA       N/A    -15 -20  76 NW5         N/A
$$



USA.gov is the U.S. government's official web portal to all federal, state and local government web resources and services.